Theta_e
305 305 305 306 306 306 306 306 306 306 306 306 306 306 306 306 306 306 306 306 306 306 306 306 306 306 306 307 307 306 306 308 307 307 306 304 303 303 304 304 306 307 307 309 310 311 311 311 310 310 311 312 312 311 310 309 309 313 316 313 311 312 311 311 311 309 308 308 308 307 306 308 307 305 303 302 302 303 303 303 303 303 302 302 300 297 296 296
305 306 305 306 306 306 306 306 306 306 306 306 306 306 306 306 306 306 306 306 306 306 306 306 306 306 306 306 307 306 306 308 307 307 306 304 303 304 305 304 306 307 307 310 312 311 311 310 310 310 311 311 310 311 311 308 309 312 314 312 312 313 310 308 309 307 306 307 307 307 306 307 307 306 303 302 303 303 304 304 303 303 302 303 301 297 296 296
306 306 306 306 306 306 306 306 307 307 306 306 306 306 306 306 306 306 306 306 306 306 306 306 306 306 306 305 306 306 307 309 307 306 305 304 304 305 304 305 305 307 308 309 310 310 310 310 310 310 310 310 309 310 311 308 309 310 310 313 313 310 308 306 306 305 304 305 306 306 306 306 306 305 303 302 304 304 304 305 305 304 304 303 303 300 297 297
306 306 306 306 306 306 306 306 307 307 306 306 306 306 305 305 305 306 305 306 305 306 306 306 306 306 306 306 305 306 308 309 306 305 305 304 304 305 305 305 305 307 308 308 308 309 310 310 310 309 310 311 309 309 309 307 308 309 309 311 309 307 307 305 304 303 303 304 305 306 305 305 305 304 302 302 304 305 306 306 306 305 305 304 304 303 300 298
305 306 306 306 306 306 306 306 306 307 306 305 305 305 305 305 305 305 306 306 305 305 306 305 306 305 305 306 305 306 309 310 307 304 304 304 305 305 305 305 305 307 308 308 309 310 310 311 310 309 311 311 310 310 308 305 307 309 307 307 306 306 306 304 303 302 302 303 304 305 304 304 304 303 303 303 303 305 306 307 306 305 305 304 304 304 302 299
305 305 306 306 306 306 306 306 307 306 306 304 304 304 305 305 305 305 306 306 306 306 306 305 305 305 305 306 307 308 310 309 306 304 304 304 305 305 305 305 306 307 308 309 309 310 310 310 309 310 310 309 309 309 307 305 305 309 307 304 304 304 304 303 302 301 301 303 303 304 304 303 303 303 303 303 303 304 305 305 305 305 305 304 304 304 302 300
305 305 306 306 306 306 306 306 306 306 305 305 305 304 305 305 305 305 305 306 306 305 305 305 305 305 305 306 309 310 309 307 304 304 303 304 305 305 305 305 306 307 308 309 310 310 310 309 309 309 310 310 309 307 306 305 305 309 308 303 303 302 302 302 301 300 301 302 303 302 302 302 302 303 303 303 303 304 304 305 305 305 304 303 303 303 302 301
305 305 305 306 306 306 306 306 306 305 305 305 305 304 305 305 305 305 306 306 306 306 306 306 305 306 305 307 311 310 306 305 304 303 303 304 305 305 305 306 306 307 307 309 309 310 309 310 309 308 311 310 308 308 307 307 308 310 308 303 302 302 302 300 300 300 300 301 301 301 301 301 302 303 302 302 303 303 303 304 305 303 302 301 301 301 302 302
306 306 305 305 306 306 306 306 305 305 305 305 305 305 305 305 305 306 307 306 306 305 306 306 305 305 305 307 312 309 305 303 303 303 303 304 305 305 305 306 306 307 308 308 308 310 309 310 309 308 310 307 308 309 308 310 311 308 306 303 302 302 301 300 301 301 300 301 301 300 301 302 302 301 301 302 302 303 303 302 303 302 301 300 300 300 302 302
306 306 306 305 306 306 305 305 305 305 305 305 305 305 305 305 305 306 306 307 306 305 305 306 305 305 306 308 311 309 304 302 303 303 303 303 305 305 305 306 306 308 309 308 308 309 308 309 308 308 309 307 308 308 307 310 309 305 305 304 303 302 301 301 301 301 300 301 301 301 301 302 302 300 303 304 302 302 302 302 302 301 300 300 300 300 301 301
306 306 306 306 306 306 305 305 305 305 305 305 305 305 306 305 305 305 306 307 306 306 305 305 305 305 308 309 310 307 303 302 303 303 304 303 304 305 305 305 306 308 308 308 307 307 307 308 307 309 310 309 307 306 305 306 305 304 304 305 304 302 302 301 301 302 301 301 301 300 301 302 302 300 303 304 302 301 301 301 301 300 300 300 300 301 301 301
306 306 306 306 306 306 306 305 305 305 305 304 304 305 305 305 305 304 305 306 306 306 305 305 306 306 309 309 306 304 302 303 303 303 304 303 303 304 304 305 305 307 308 308 307 305 306 307 308 310 311 309 308 307 305 303 303 303 304 307 307 304 304 302 302 301 301 302 300 300 304 305 303 301 304 304 302 300 300 300 301 301 300 300 300 300 301 301
306 306 306 306 306 306 306 305 305 305 305 304 304 305 305 305 305 304 305 306 306 306 305 305 305 306 310 309 304 302 302 303 303 304 304 304 304 304 303 304 305 305 306 306 306 305 305 306 308 309 309 309 309 308 305 303 303 305 305 307 308 308 307 303 302 301 300 301 300 301 307 309 306 304 305 304 301 300 300 301 301 301 301 300 300 300 300 300
306 306 306 306 306 306 305 305 304 305 305 305 304 304 304 304 305 304 305 306 306 306 306 305 306 308 311 307 303 302 303 303 304 304 304 304 305 305 304 304 304 304 304 304 304 305 305 306 307 308 308 308 307 306 306 304 304 308 309 308 309 310 308 304 302 302 302 301 300 303 307 309 309 308 305 303 302 301 301 303 303 302 302 301 301 300 300 300
306 306 306 306 306 305 305 305 304 305 305 305 305 304 304 305 305 305 305 306 306 306 306 306 306 309 310 305 302 303 303 304 304 304 304 304 304 306 305 304 304 304 304 304 304 304 305 306 308 308 306 305 307 308 310 309 307 309 310 309 309 309 308 305 302 301 303 301 300 303 307 308 309 308 305 303 302 302 302 303 303 303 303 302 301 301 300 300
306 307 306 306 306 306 305 305 305 305 305 305 305 304 304 305 305 305 306 306 306 306 306 308 308 309 311 306 303 304 304 305 304 303 304 304 304 305 305 304 305 304 304 304 304 304 306 306 307 307 306 306 309 311 311 310 309 310 310 309 309 308 309 308 303 301 302 302 302 303 305 306 307 306 304 303 302 302 302 303 303 302 302 302 302 301 300 300
307 307 306 306 306 306 305 305 306 305 305 305 305 305 305 305 305 305 306 305 306 306 306 308 307 308 310 305 303 305 304 304 303 303 304 304 304 304 304 306 306 306 305 305 304 305 306 306 305 308 308 308 309 310 310 309 309 309 309 308 309 308 309 309 306 303 301 303 304 304 304 305 306 306 306 305 304 303 303 303 303 302 302 302 301 301 301 301
307 306 306 306 306 306 305 305 305 305 306 305 305 305 305 305 304 306 307 306 306 306 306 307 308 311 310 304 304 305 304 304 303 303 304 304 304 303 304 306 306 306 307 306 306 306 306 307 307 309 309 309 310 310 310 310 309 309 309 308 308 308 308 309 309 304 302 304 305 305 305 305 306 307 307 307 306 304 304 303 302 302 301 301 301 301 301 301
306 306 306 305 305 306 305 305 306 306 306 306 306 306 306 307 306 307 309 308 309 311 311 309 309 312 310 305 304 304 303 303 303 304 305 304 304 304 305 305 306 307 308 309 309 306 307 309 309 309 311 310 310 309 309 309 309 309 309 307 307 308 308 308 309 304 302 303 304 305 305 306 306 306 306 307 306 304 304 303 302 302 301 301 301 301 301 301
306 306 305 306 306 306 306 306 306 306 306 306 308 309 310 311 311 312 310 307 308 308 308 308 306 307 306 304 304 304 303 303 304 305 305 304 304 305 306 306 307 308 309 311 311 307 306 310 311 310 310 309 307 306 306 306 306 307 307 307 307 307 308 309 307 303 301 303 304 305 305 305 305 306 307 306 305 304 303 303 303 302 302 302 302 302 302 302
305 305 306 306 306 306 307 307 306 306 306 306 308 311 314 314 314 314 310 308 306 305 306 305 304 304 304 303 304 303 303 304 305 305 305 304 304 305 307 307 309 310 309 309 310 308 308 311 312 309 307 306 304 304 305 305 306 307 307 306 307 307 308 309 307 302 301 302 304 305 304 305 305 306 307 305 304 304 303 303 302 302 302 302 302 303 303 303
305 306 306 306 305 306 306 308 308 306 306 306 309 313 314 311 309 307 309 311 309 306 306 305 304 305 303 303 303 301 303 305 305 306 304 305 306 307 309 308 309 311 309 308 310 311 311 312 309 305 304 304 304 303 304 306 306 306 306 306 307 308 308 308 306 302 301 301 304 304 303 304 306 307 306 304 304 304 302 302 302 302 302 303 303 303 304 304
306 306 306 305 305 305 306 308 308 306 306 308 312 313 311 307 304 303 308 313 310 308 308 306 305 305 304 304 303 302 304 305 306 306 303 305 307 307 309 310 310 310 310 310 310 310 311 310 304 302 303 304 305 304 304 306 306 306 306 306 307 308 307 307 306 303 302 302 303 303 302 304 306 307 305 303 302 303 302 302 302 302 302 303 303 303 303 303
306 306 305 306 305 305 306 307 308 307 307 307 309 309 307 307 305 305 310 312 311 310 307 305 304 304 304 303 302 304 305 305 305 304 303 305 307 306 309 310 310 310 311 311 309 310 312 306 301 302 303 304 305 305 305 306 306 307 307 306 307 307 305 305 305 303 304 304 302 303 304 306 308 308 305 303 303 303 303 302 303 303 302 303 303 302 302 302
306 305 306 306 305 305 305 308 309 307 308 308 307 307 307 308 306 306 310 311 311 310 308 306 305 304 303 302 303 304 305 305 304 303 302 302 305 308 309 307 308 312 312 310 309 311 311 302 300 303 303 303 305 305 306 306 305 307 308 306 304 304 303 303 304 303 305 306 303 303 306 308 309 308 306 306 305 304 304 304 305 303 303 303 302 302 301 301
305 306 306 305 305 305 306 310 309 306 310 310 306 307 307 308 306 305 309 311 310 311 310 308 306 304 304 304 305 304 307 307 302 301 302 301 303 308 310 308 308 311 311 309 308 309 306 300 300 304 304 304 305 305 306 304 304 307 305 302 302 301 302 303 303 303 305 307 305 303 305 308 308 307 306 306 306 305 305 305 304 303 303 303 302 301 301 301
305 306 305 305 305 305 307 310 308 308 314 311 306 306 306 306 306 306 310 310 309 310 311 309 306 305 305 304 303 306 311 309 303 301 301 301 303 305 309 310 310 309 308 308 308 308 305 301 300 302 303 305 306 306 305 303 304 306 302 299 301 301 301 302 302 302 304 305 305 304 304 306 308 307 306 306 306 305 305 304 303 302 302 302 302 301 300 300
305 305 305 305 305 305 306 307 306 309 312 309 306 306 306 306 306 308 311 309 308 309 310 309 305 303 305 304 303 307 309 307 307 306 300 300 302 305 308 310 310 310 307 308 307 307 305 304 303 303 304 305 305 304 303 302 304 304 300 299 300 300 302 302 301 303 303 303 305 305 304 305 308 307 306 306 305 304 304 303 302 302 302 301 301 300 300 299
305 305 305 305 305 306 305 305 306 308 308 307 307 306 305 306 307 311 311 307 309 310 310 309 306 305 306 306 305 306 306 306 308 306 301 301 302 304 308 309 309 309 307 309 309 307 304 303 303 304 304 304 303 300 300 302 303 302 299 300 300 300 301 301 301 303 303 303 306 305 303 305 307 307 306 305 304 303 303 302 302 301 301 300 300 299 299 299
305 305 305 305 306 306 305 306 307 307 307 308 307 305 305 308 310 311 308 307 311 311 309 309 309 308 309 309 309 307 306 307 307 305 305 304 303 304 305 305 307 307 307 307 307 306 303 301 301 303 303 301 300 299 299 301 301 300 300 302 303 302 301 301 302 302 304 306 306 303 303 304 306 307 306 304 302 302 302 301 301 301 300 300 300 299 299 299
304 305 305 304 306 305 308 311 309 306 308 307 306 306 308 311 311 308 307 308 311 311 310 310 310 309 308 308 309 308 307 307 306 306 308 306 306 307 306 306 307 307 307 307 307 306 303 302 303 302 301 299 299 300 300 299 299 299 301 303 305 305 303 302 303 302 306 309 304 300 302 303 304 306 304 302 301 301 301 301 300 300 300 300 300 299 299 299
304 305 305 305 305 305 308 311 308 307 308 306 306 309 311 311 309 307 307 309 310 311 311 310 308 307 306 306 307 306 306 307 306 306 307 306 306 308 307 307 307 307 307 308 308 308 306 304 303 301 300 299 301 303 303 300 300 301 303 304 306 308 307 306 306 306 308 307 302 300 302 302 304 306 304 302 301 300 300 300 300 300 300 299 299 299 299 298
304 305 305 305 305 306 306 307 307 307 306 305 308 311 311 308 308 309 308 307 309 309 308 308 307 306 305 307 307 305 305 307 307 306 306 306 306 306 305 304 305 307 306 306 307 307 307 305 302 302 302 299 300 303 304 303 303 303 304 304 306 307 308 308 308 308 309 306 301 300 301 303 304 305 304 302 300 300 300 300 300 300 299 299 298 298 298 298
304 304 305 305 305 305 305 306 306 306 305 307 311 311 308 306 308 309 308 307 308 307 307 307 306 306 306 307 306 304 305 306 305 305 306 307 307 307 306 304 304 306 304 305 306 306 307 307 304 303 301 299 300 301 301 302 302 303 302 302 305 306 307 308 308 308 309 307 303 300 301 305 305 305 303 301 300 300 300 300 300 300 299 298 298 298 298 297
304 304 304 304 304 305 304 305 305 305 306 310 311 309 307 306 306 307 307 308 307 307 307 305 305 308 307 306 304 302 304 305 304 305 307 307 307 306 305 304 304 304 304 306 306 305 307 308 303 299 298 297 299 299 298 300 302 301 300 302 304 304 304 305 306 306 306 305 304 302 303 305 305 304 302 301 300 300 299 300 299 299 298 298 297 297 297 297
304 304 305 304 304 305 304 305 305 305 308 311 310 307 307 306 305 306 308 308 306 306 307 306 305 307 307 306 304 302 302 304 304 306 306 306 306 305 304 302 301 302 303 305 306 305 307 307 302 298 298 296 296 298 297 300 302 301 301 303 302 300 301 304 305 304 303 304 305 305 305 305 305 304 302 301 301 300 299 299 299 298 298 297 297 296 296 296
304 305 307 305 304 305 305 305 305 306 310 312 309 307 307 306 304 306 306 305 304 303 305 306 306 306 306 306 305 303 302 303 304 305 305 306 305 303 304 302 299 299 299 300 304 304 304 306 302 299 300 297 294 296 298 298 300 301 302 302 300 299 300 301 303 304 304 306 307 306 306 306 306 305 303 301 301 299 299 299 298 298 297 296 296 296 296 296
304 305 308 306 304 305 305 306 306 309 311 310 308 308 308 306 304 304 304 303 303 303 304 306 307 305 305 305 305 303 302 305 306 305 305 306 305 303 303 302 299 298 297 298 303 303 303 305 302 298 299 298 295 297 299 298 297 299 300 299 300 301 302 302 303 305 306 306 306 306 307 306 306 305 303 301 299 299 298 298 297 297 296 296 296 295 295 295
305 307 310 307 304 305 306 306 308 310 310 308 308 308 307 305 304 301 301 302 303 304 305 305 305 305 304 305 305 303 302 304 305 305 305 305 305 303 301 301 300 298 297 298 301 302 303 304 303 299 298 299 297 299 302 301 298 297 298 299 299 300 302 303 303 303 304 305 305 306 306 306 305 303 301 300 299 298 298 297 297 296 296 296 295 295 295 295
307 309 311 306 303 306 306 307 309 310 309 308 308 308 306 305 304 300 300 302 304 303 304 304 304 304 305 304 304 303 303 303 304 304 305 304 305 304 299 299 300 298 297 298 299 301 302 303 304 302 299 300 301 301 302 302 301 300 301 301 301 300 300 301 302 302 302 304 305 306 306 305 303 301 300 299 298 297 297 296 296 296 295 295 295 295 295 293
307 309 310 305 303 306 307 309 309 307 308 308 307 308 307 306 305 302 301 302 303 302 302 303 304 304 305 305 304 303 303 304 304 304 305 304 303 303 300 297 298 298 298 299 299 301 302 303 304 303 302 304 303 299 297 298 299 300 302 302 302 302 301 301 303 303 301 302 303 304 304 304 302 301 300 299 299 297 296 296 295 295 295 295 294 294 294 292
308 309 309 304 304 306 308 310 306 303 306 308 306 306 308 306 304 303 303 302 303 302 301 302 304 304 305 305 304 303 303 304 304 304 304 304 302 303 300 295 296 296 297 300 300 298 299 301 302 303 304 303 299 295 294 295 297 298 299 300 301 301 301 302 303 302 300 301 301 301 302 302 301 300 300 300 299 296 296 296 295 295 294 294 294 293 292 291
309 309 306 304 304 306 309 310 307 306 307 305 303 304 305 305 303 302 303 303 303 303 303 304 304 304 304 303 303 304 303 304 305 304 304 303 302 300 297 295 295 296 297 299 299 298 298 300 302 304 304 302 296 294 294 294 296 298 299 299 299 300 301 300 300 300 299 300 300 301 303 302 300 300 301 300 298 296 296 295 294 294 294 293 293 292 291 291
308 309 307 304 304 307 310 310 309 308 306 304 304 305 303 303 303 303 304 304 303 302 303 304 303 303 303 302 302 304 303 303 305 304 302 302 301 296 294 294 295 296 297 299 299 298 300 302 303 303 305 304 301 300 299 296 297 300 300 298 297 299 300 298 297 297 298 299 300 301 302 302 301 300 300 299 297 296 295 295 294 293 293 292 292 291 291 291
307 308 308 305 305 307 308 308 308 307 306 306 306 305 304 304 302 301 302 303 302 301 302 303 301 301 302 302 302 303 302 303 303 302 300 299 300 296 295 295 294 296 297 296 296 297 299 303 302 303 305 306 306 306 304 301 300 300 300 298 296 298 300 298 297 299 300 300 299 300 301 301 300 300 299 298 296 295 295 294 293 292 292 291 291 290 290 290
307 308 308 307 307 307 305 303 306 307 306 306 306 304 304 305 302 299 301 302 301 300 301 302 301 301 302 303 304 304 303 303 302 301 300 300 300 297 296 296 296 296 297 295 295 296 298 300 300 301 303 304 305 305 302 300 300 300 301 300 298 297 297 296 297 299 300 299 300 300 300 300 299 298 297 297 295 294 294 293 292 291 291 291 290 290 290 290
308 308 307 307 308 308 306 304 305 306 305 305 305 304 304 304 303 300 301 302 300 300 301 301 301 303 303 304 304 304 304 303 302 300 299 299 298 297 295 296 297 296 297 297 294 295 298 301 301 302 302 301 301 301 300 299 298 298 300 300 299 297 295 295 297 299 299 299 300 300 299 298 297 297 296 296 294 293 292 291 291 291 290 290 289 289 290 290
307 307 304 304 307 307 307 306 306 306 306 305 304 303 303 304 304 303 302 301 300 300 302 303 303 303 304 304 303 303 304 303 303 303 301 298 297 298 297 297 297 296 297 296 293 294 298 301 300 300 300 299 299 299 299 299 298 298 298 298 298 297 296 296 297 298 297 297 298 298 297 296 296 296 295 295 293 292 291 290 290 290 290 289 288 289 289 289
305 305 302 302 306 304 303 303 305 306 307 305 304 304 304 305 305 303 302 302 302 301 301 304 305 303 302 303 302 303 304 303 303 304 303 301 300 299 299 299 298 296 295 295 294 293 296 301 301 299 298 298 299 299 298 298 297 297 297 297 297 297 297 297 297 297 296 296 296 296 296 296 296 295 294 293 293 291 290 290 290 289 289 288 288 289 289 289
307 307 304 304 305 302 299 300 303 307 306 303 304 305 304 305 305 303 301 302 305 303 301 303 305 302 302 302 302 302 303 302 302 301 299 300 301 299 299 300 299 296 295 295 295 293 295 300 300 298 299 300 299 297 297 297 297 297 297 297 296 296 296 297 296 296 296 296 296 295 296 296 296 294 293 292 291 290 289 289 289 289 288 288 288 289 289 288
303 303 303 307 306 301 300 301 302 306 307 304 305 305 304 305 305 303 303 301 302 303 303 303 304 302 301 302 302 302 301 300 301 300 298 298 299 298 298 297 297 297 297 296 295 294 295 298 298 297 300 302 299 297 298 298 296 296 297 296 296 296 296 296 295 295 295 295 296 296 296 296 295 293 292 291 290 289 289 289 289 288 287 288 288 288 287 287
301 301 301 306 306 301 301 303 303 305 306 304 304 305 305 305 303 302 304 302 300 301 301 301 302 302 303 303 302 301 298 297 297 296 296 296 296 296 295 295 296 297 298 297 295 295 296 297 299 299 300 301 299 298 299 298 298 299 298 295 295 295 295 295 294 294 294 295 295 296 295 294 293 291 290 290 289 288 288 288 288 287 287 288 288 287 286 286
Wind_Speed
10 10 11 11 10 10 9 8 7 7 6 5 5 4 3 2 2 1 1 3 6 9 9 9 7 6 5 3 1 4 5 6 12 16 15 12 17 17 16 14 11 10 7 6 6 7 7 2 2 4 4 1 1 1 1 2 2 3 2 3 2 2 2 3 4 3 2 1 5 8 9 9 5 6 5 2 7 10 8 9 10 10 11 11 4 8 8 9
9 9 10 10 10 9 9 8 6 6 5 4 4 4 4 2 2 1 2 3 3 5 7 8 9 10 9 5 3 1 1 1 10 17 13 15 18 15 16 12 9 8 6 6 7 6 4 4 4 4 3 1 1 0 2 2 4 2 2 3 1 4 3 4 5 4 3 2 3 6 8 8 4 4 6 4 8 9 11 11 11 13 13 14 11 11 10 10
7 8 8 8 8 8 8 7 6 5 4 4 4 4 4 4 4 3 3 4 5 6 8 8 9 10 11 9 5 4 4 6 5 12 13 18 18 15 16 11 8 7 4 4 6 6 5 4 5 5 3 0 1 1 1 3 3 1 2 3 3 4 3 4 3 4 3 3 2 6 6 7 3 2 5 5 9 9 11 11 10 12 13 14 15 16 14 13
6 6 7 7 7 7 7 6 5 5 4 4 4 4 4 4 4 4 4 4 5 7 9 10 10 11 10 11 6 6 7 6 3 9 15 19 18 16 15 10 7 5 1 2 4 4 3 3 4 3 2 0 2 1 2 4 3 1 2 3 5 2 1 3 3 3 3 3 2 4 4 7 4 2 5 6 9 9 10 10 10 10 9 10 12 17 18 16
5 5 7 7 6 6 6 4 3 4 4 4 5 5 4 4 3 3 3 4 5 7 10 11 10 9 9 10 4 6 6 5 3 10 16 20 18 16 14 9 7 3 1 2 4 4 5 4 2 2 1 1 1 0 2 4 3 1 1 3 3 1 1 4 3 3 2 2 2 4 3 3 1 3 8 9 10 9 5 2 4 6 6 7 7 12 17 16
7 6 6 6 6 6 5 4 2 3 3 4 5 5 4 4 3 3 3 3 4 6 8 9 9 7 5 6 1 6 4 1 5 12 17 19 18 16 12 7 5 2 1 4 5 5 4 4 3 1 1 1 2 2 3 3 2 1 1 2 1 2 2 3 3 2 2 2 2 2 1 1 3 7 8 12 16 13 7 2 1 4 3 4 5 7 13 14
9 7 6 6 6 5 5 4 4 3 2 4 5 4 4 5 4 4 3 3 4 5 5 6 10 7 2 3 2 4 2 4 7 13 18 19 16 13 8 5 4 1 2 5 5 4 3 5 2 1 0 2 2 3 3 2 2 2 1 3 1 1 2 3 3 2 1 3 2 3 4 4 8 9 6 11 17 15 13 7 3 2 1 1 4 7 11 12
8 9 7 5 5 5 4 4 4 3 2 4 5 3 3 5 6 6 5 4 4 4 4 4 10 8 5 5 4 3 6 5 8 12 17 18 14 11 7 5 5 2 2 3 4 5 4 4 2 1 1 2 1 2 2 3 1 2 2 4 2 2 3 4 2 2 1 3 3 4 7 9 9 7 9 17 19 15 14 12 7 6 5 5 7 10 11 12
7 8 7 6 5 4 4 3 3 2 3 4 5 3 3 4 5 6 5 6 5 4 4 5 9 7 4 7 8 2 4 3 7 11 15 17 14 13 9 5 5 3 1 3 4 6 5 2 2 2 1 4 1 1 2 3 1 3 3 3 3 3 3 3 2 2 2 2 3 7 10 10 5 4 13 17 13 9 8 10 9 8 9 10 10 11 11 11
6 6 6 6 5 4 4 3 2 3 4 5 5 2 2 2 4 6 5 6 7 6 6 6 8 5 6 9 10 2 3 3 7 11 12 15 15 14 14 10 7 6 4 6 7 7 6 3 4 2 2 4 2 2 3 2 1 2 3 2 2 2 3 3 3 2 2 3 3 8 12 11 3 1 10 7 2 1 3 6 8 8 10 11 10 11 11 11
4 5 5 5 4 3 3 2 2 4 5 6 4 1 1 0 3 6 6 7 7 6 7 7 4 3 4 5 5 1 3 3 5 10 10 12 16 17 17 15 10 8 6 8 10 10 8 6 5 2 1 2 2 3 2 1 0 1 2 2 3 3 4 4 4 1 3 2 2 10 17 14 6 5 13 8 4 4 4 6 7 9 9 10 10 10 10 11
3 3 4 4 4 3 2 2 3 4 5 4 2 1 1 1 3 6 7 7 7 5 7 6 2 1 5 3 4 2 3 4 3 9 11 8 14 18 18 15 12 10 7 7 8 9 7 6 5 2 2 1 2 2 3 2 1 2 3 3 4 6 5 4 3 1 2 1 4 11 15 10 10 11 14 7 4 4 5 7 7 9 9 8 8 8 8 9
3 3 3 4 3 3 2 2 3 4 5 4 2 1 2 2 4 6 7 7 7 5 6 6 1 3 5 2 4 1 2 6 4 7 9 6 7 12 14 14 14 13 10 10 8 7 7 5 4 4 3 1 2 2 3 4 2 3 4 4 3 5 4 4 1 1 2 2 5 7 9 5 8 14 9 5 6 5 5 7 7 8 7 6 6 6 7 7
2 2 2 3 3 3 2 3 4 5 5 4 3 2 2 4 5 6 7 7 6 4 4 5 3 3 2 2 1 1 2 5 6 7 8 7 6 4 7 10 12 13 12 12 10 7 7 5 4 6 3 3 3 3 4 5 3 3 2 1 2 3 2 5 2 1 2 1 3 5 5 8 8 7 7 7 6 7 7 9 8 8 6 5 5 5 6 7
2 2 2 2 3 3 3 3 4 5 6 5 4 3 3 4 5 5 6 6 4 3 4 4 3 3 1 4 1 1 3 3 6 9 9 10 8 3 3 5 7 9 9 9 8 7 5 2 1 3 3 2 3 4 3 4 4 2 2 1 1 3 1 5 3 1 2 2 1 3 4 10 14 5 7 6 5 7 10 12 10 10 9 7 5 5 5 5
1 1 2 2 2 2 3 4 5 5 6 5 4 3 4 4 5 6 6 6 5 5 6 4 4 4 1 3 2 1 4 3 6 9 8 9 8 5 3 2 2 3 4 4 4 4 3 2 1 1 2 2 3 3 4 4 3 2 2 5 4 4 3 1 3 2 2 2 2 3 5 10 11 3 4 6 8 8 11 12 11 10 9 8 6 5 5 5
1 1 1 1 2 2 3 4 4 5 5 4 4 4 3 3 5 7 7 8 7 5 4 2 3 3 0 2 1 1 3 4 6 8 7 7 6 5 6 3 1 1 1 1 1 1 1 1 1 1 2 3 2 3 5 4 2 0 2 5 4 4 6 3 1 3 1 1 3 5 8 15 17 12 10 8 7 9 10 11 10 8 6 6 5 5 5 5
1 0 1 1 2 2 3 3 3 4 4 4 3 4 3 3 5 9 7 6 6 4 2 2 3 1 1 1 0 2 3 4 6 7 7 7 6 5 5 3 2 4 4 3 2 1 3 0 3 2 2 3 1 2 5 4 4 5 5 6 6 5 7 6 1 3 2 2 6 9 10 18 22 17 15 12 8 9 8 8 8 6 5 3 3 4 4 5
1 0 1 2 3 4 4 4 4 4 4 3 4 7 8 8 5 4 9 6 2 2 2 3 3 1 1 2 2 3 2 2 5 6 6 8 7 5 5 4 4 4 4 2 0 2 3 2 4 4 1 0 2 3 4 4 4 6 5 5 7 7 7 7 3 5 4 5 8 10 11 18 20 17 16 12 7 6 6 5 4 3 2 1 1 2 2 4
1 0 2 4 4 6 6 6 6 5 4 3 6 9 7 5 4 2 8 10 5 1 1 3 3 1 1 3 5 6 3 1 2 4 6 9 7 5 5 5 4 3 1 2 2 3 2 4 3 2 3 3 4 4 2 2 3 4 4 5 7 7 8 6 3 5 3 3 7 8 12 20 19 16 14 8 4 3 3 3 2 2 2 1 1 1 1 3
1 2 4 5 6 7 8 7 6 5 4 3 6 7 3 3 3 0 3 4 4 2 1 3 3 1 2 3 7 8 4 3 0 3 8 9 5 3 2 2 4 2 2 1 2 0 2 4 2 4 5 4 4 3 2 1 1 3 5 6 7 7 7 3 4 4 2 1 6 6 12 20 19 14 9 4 2 3 4 4 3 3 3 2 2 2 2 1
3 4 5 6 7 10 11 8 5 3 3 3 5 4 3 3 1 1 1 1 4 2 1 2 2 0 2 1 5 7 4 2 1 3 10 11 3 1 2 2 4 1 2 1 3 2 3 2 3 4 3 4 3 2 1 1 3 4 5 6 6 4 5 2 5 4 3 1 6 7 9 17 18 12 4 3 3 3 3 3 3 3 3 3 3 3 2 2
5 5 5 7 10 12 12 7 2 1 2 2 2 2 3 3 1 1 4 2 3 1 1 2 1 2 2 1 5 8 4 1 1 4 12 11 1 1 4 3 2 1 1 2 2 4 4 1 4 3 1 2 1 1 1 3 4 6 5 5 7 4 4 3 3 1 4 5 6 7 8 14 13 5 2 4 1 1 1 1 1 2 2 3 4 5 5 7
5 3 4 7 11 12 10 6 3 2 1 2 5 5 3 3 2 2 3 2 1 1 2 2 1 2 2 1 5 6 2 2 1 4 12 10 3 2 3 2 2 3 1 1 2 6 3 3 4 2 1 2 2 1 3 5 5 6 7 6 7 5 4 5 4 7 9 6 3 7 8 7 5 2 5 3 3 1 1 2 2 1 1 3 5 7 8 9
3 1 4 7 10 12 7 3 4 4 3 4 6 5 3 3 3 3 2 2 0 2 2 1 2 0 1 2 4 4 1 1 1 5 8 8 4 2 0 1 3 2 2 2 3 6 1 3 2 2 2 2 3 4 4 4 6 6 5 3 5 5 5 7 8 9 8 2 3 3 7 2 3 3 6 4 4 5 3 3 7 8 7 7 8 10 10 10
2 2 5 7 10 11 6 1 2 3 1 1 3 3 3 3 3 3 2 3 1 1 1 1 1 1 2 2 3 2 1 1 2 3 4 4 3 2 1 1 1 1 2 1 2 2 2 3 1 1 2 3 4 6 3 3 5 6 1 3 4 3 5 7 8 6 6 5 1 2 4 4 4 2 7 6 7 9 7 8 12 11 10 10 10 10 10 10
3 3 6 8 9 10 6 2 3 4 2 0 1 1 2 2 3 3 2 3 1 0 1 1 0 2 2 2 3 2 2 0 1 1 3 4 2 2 2 1 1 0 1 1 3 1 4 3 3 2 3 4 5 5 3 5 5 4 2 3 3 3 6 6 6 5 5 7 3 4 4 6 5 2 6 5 8 10 10 12 12 11 11 11 11 11 11 11
4 5 7 8 9 10 7 4 5 3 2 2 1 1 2 3 4 3 2 3 0 0 1 1 0 1 1 1 2 2 2 2 2 1 2 3 2 2 3 2 2 0 2 3 4 0 2 3 4 4 4 4 3 2 3 4 5 1 2 2 3 5 7 5 5 6 4 6 3 5 5 5 3 3 6 5 8 9 9 10 10 10 11 11 11 11 11 10
5 6 7 8 9 9 7 5 4 2 3 4 2 2 3 4 3 2 2 3 0 1 1 1 1 1 1 2 1 0 1 1 2 2 0 2 1 0 2 1 1 0 2 4 5 1 1 1 1 2 4 3 2 4 3 2 3 1 1 4 5 5 6 5 5 5 3 4 3 4 5 4 5 2 4 4 6 6 6 7 8 9 10 10 10 10 10 9
4 6 7 9 8 7 7 6 4 3 4 3 2 2 4 4 2 2 3 2 1 1 0 0 1 2 4 3 1 1 0 0 2 2 1 1 0 1 0 1 1 2 3 4 4 1 3 2 1 1 2 2 4 2 1 1 1 3 4 7 7 6 5 4 4 3 3 4 1 4 2 3 5 2 2 4 5 6 5 5 6 7 8 9 8 9 10 9
5 6 7 8 7 6 6 3 3 5 3 2 2 3 4 2 2 3 2 1 0 0 1 0 1 3 4 3 1 1 1 1 3 4 1 1 2 3 2 1 1 3 4 4 3 3 4 2 2 1 2 2 2 1 2 2 1 2 5 7 7 4 4 3 3 3 4 3 3 3 1 3 5 2 4 8 8 8 6 5 6 7 9 9 9 10 10 10
5 6 6 6 5 5 3 2 4 5 2 1 2 3 3 2 3 2 0 0 1 1 1 1 2 3 3 1 1 2 2 1 2 3 2 2 2 1 1 2 2 3 3 0 0 3 3 2 3 3 1 0 2 3 2 3 3 4 5 5 7 5 3 4 3 3 4 0 4 2 4 3 9 6 5 11 10 9 7 5 5 7 10 10 10 11 10 10
4 5 6 5 4 3 2 2 3 2 0 2 2 3 3 4 3 1 1 1 1 2 1 1 1 2 3 2 1 2 1 1 2 1 0 2 2 0 1 2 3 3 3 4 5 3 1 2 3 3 2 1 3 3 1 1 1 3 3 4 5 5 6 7 6 6 5 0 5 3 4 4 10 5 8 13 10 9 7 5 4 6 9 10 10 11 11 11
5 6 6 5 4 4 3 2 1 1 1 2 3 3 4 4 1 1 1 1 2 1 1 1 2 2 2 1 2 2 2 1 2 2 1 2 2 1 2 2 3 2 2 4 4 3 3 1 1 1 1 1 2 1 2 3 4 2 2 3 4 4 5 7 6 7 8 5 1 3 0 5 5 2 10 12 10 8 6 6 5 7 9 9 9 10 11 12
6 6 5 5 5 4 4 2 1 0 2 3 3 3 4 3 2 1 1 1 2 2 1 1 2 3 1 1 2 2 1 1 1 2 2 2 2 3 2 3 3 2 2 3 2 1 5 2 3 2 1 0 1 2 1 4 3 0 0 3 3 2 3 6 9 8 7 8 4 4 3 5 2 7 11 10 9 8 7 7 7 9 9 10 10 11 12 12
5 5 4 5 6 5 4 2 1 1 3 3 3 3 2 1 3 2 2 2 2 3 4 2 2 3 1 1 1 1 1 1 2 3 2 1 2 4 2 3 4 3 3 3 2 2 4 2 4 3 1 2 1 1 0 3 2 1 2 2 0 2 3 6 8 5 3 7 6 4 5 5 2 5 10 10 6 8 8 8 10 11 13 14 12 12 12 12
4 4 3 4 6 5 3 2 2 3 3 3 4 3 1 1 2 2 2 2 1 2 5 3 0 1 2 1 1 2 1 1 1 2 1 1 2 3 2 2 2 3 4 3 2 2 3 4 3 3 1 3 1 2 1 1 3 2 2 3 2 1 1 3 5 3 4 7 6 5 6 6 5 2 8 7 6 10 10 12 14 14 16 16 13 13 14 14
3 2 1 3 6 4 2 2 3 4 4 3 3 1 1 1 2 2 2 2 1 1 3 3 1 1 2 2 1 2 1 2 1 2 3 1 1 2 2 2 2 2 2 2 2 2 3 5 0 1 0 4 3 3 2 2 1 3 3 3 2 2 2 3 3 4 6 8 7 6 5 6 5 2 3 4 10 13 13 14 13 14 16 14 14 15 16 16
3 3 1 3 5 4 2 3 3 4 3 3 2 0 1 1 2 2 1 1 1 1 2 1 1 1 1 2 3 1 0 3 4 3 2 2 1 2 2 1 1 2 1 2 2 2 2 3 2 1 2 3 3 4 2 2 2 1 2 2 1 2 4 3 2 4 5 8 8 7 4 3 2 3 6 8 10 12 12 12 12 14 15 14 14 14 15 16
2 2 0 4 6 4 3 3 3 2 2 1 1 1 1 1 2 2 1 2 1 1 2 2 1 2 1 1 2 1 0 2 3 3 1 2 2 2 3 2 2 2 0 2 2 3 2 3 3 0 2 1 2 2 1 2 1 2 3 3 2 2 2 3 3 3 5 7 7 7 6 2 3 5 7 8 9 10 11 12 12 13 14 15 14 14 15 16
1 2 1 5 6 3 2 2 1 0 1 0 1 1 1 1 1 2 2 1 1 0 1 3 3 2 3 2 1 1 2 3 2 2 1 1 2 2 3 4 4 2 1 2 2 2 2 3 5 4 4 4 1 3 4 4 2 2 3 3 2 2 2 5 5 2 1 5 4 6 9 5 2 4 6 8 8 9 11 13 13 13 15 15 14 15 16 16
2 2 2 6 5 2 2 1 1 1 2 1 1 1 1 1 1 1 2 1 1 0 1 2 2 2 2 2 1 1 3 3 1 1 2 1 2 3 3 3 4 3 2 1 1 1 2 3 6 7 8 3 4 5 4 3 2 2 3 2 2 3 3 5 7 2 1 3 1 4 9 5 2 4 4 9 10 10 12 14 14 14 15 15 16 17 17 16
2 1 3 6 5 2 3 1 1 1 0 1 0 1 1 1 0 1 0 1 1 0 1 2 1 1 1 2 2 1 1 2 2 1 2 1 2 4 3 2 3 2 2 1 1 2 1 3 4 7 7 1 6 4 3 2 1 2 3 2 1 2 2 3 5 4 4 6 4 6 9 3 4 5 3 11 12 11 12 14 15 15 14 15 17 17 17 16
1 0 2 6 6 2 2 1 1 1 1 1 1 1 1 1 0 1 1 1 0 1 2 1 0 1 0 1 3 2 1 2 1 0 1 2 1 3 2 3 2 2 2 1 2 2 1 3 2 6 7 1 2 1 2 1 1 2 1 2 2 2 2 1 2 2 4 6 6 7 8 3 3 2 11 15 13 13 14 14 16 16 15 16 16 16 16 16
1 1 1 4 7 3 0 1 2 2 1 1 1 0 1 1 1 2 2 1 0 2 2 1 0 2 1 1 2 2 2 3 1 1 1 1 1 2 2 2 2 2 3 3 4 3 3 4 3 5 6 5 5 4 2 1 3 4 1 2 2 1 2 1 3 4 5 4 4 7 9 8 7 11 17 17 15 15 16 17 17 15 15 16 16 15 15 15
1 1 0 1 4 4 1 1 2 2 0 1 1 0 0 1 2 1 1 1 1 1 2 1 1 2 2 2 3 3 3 3 2 2 2 1 1 2 2 1 1 1 3 3 4 3 3 4 5 7 8 7 8 8 5 4 6 8 6 1 3 3 1 2 4 4 4 6 6 8 9 13 15 16 16 14 14 15 16 18 17 15 15 16 16 16 16 15
1 1 1 1 1 2 1 1 1 1 0 1 1 1 0 1 2 2 1 1 0 1 2 1 2 3 2 1 3 2 1 3 3 2 2 2 1 2 2 1 1 1 1 2 2 1 3 4 3 4 8 9 11 12 10 7 9 10 9 5 1 4 4 4 6 5 7 7 7 7 10 15 17 18 15 13 14 16 17 17 16 16 16 16 16 19 19 17
1 0 1 1 1 1 1 1 2 1 1 1 1 1 1 1 1 0 1 1 1 2 2 2 3 4 3 2 3 3 2 3 3 1 0 1 1 0 2 2 1 1 1 2 1 0 4 4 1 1 6 10 12 13 11 8 7 7 6 6 3 4 5 6 7 7 7 6 9 13 16 18 17 15 13 13 15 17 17 17 16 17 17 18 20 20 19 18
1 1 1 1 1 2 1 1 2 1 0 1 1 1 1 2 1 1 0 1 2 2 2 2 0 1 2 2 3 3 4 3 2 0 1 1 1 2 2 1 2 1 2 2 2 1 3 2 2 1 7 11 10 8 5 3 4 5 4 4 3 2 5 6 6 7 8 10 13 16 19 18 12 10 12 14 16 17 16 16 16 17 19 21 22 20 19 20
0 0 1 0 1 2 1 1 1 1 1 1 1 1 1 2 1 1 1 2 2 2 2 2 2 2 0 1 4 4 3 4 3 2 1 0 1 1 2 2 1 2 2 1 1 0 2 1 2 1 7 8 2 2 2 3 5 6 4 2 2 3 3 4 5 7 9 11 14 16 17 14 8 11 14 14 15 15 16 18 18 18 20 22 22 20 19 20
0 0 0 1 1 1 0 0 1 2 1 1 0 1 0 1 1 1 0 0 2 1 0 2 3 1 1 2 4 3 4 4 4 3 2 2 3 2 1 3 3 1 2 1 0 1 1 1 0 1 7 6 3 4 4 4 4 5 5 1 3 3 2 3 4 7 10 13 15 14 11 9 9 12 15 15 15 16 18 19 19 19 21 22 20 19 19 20
1 1 0 2 1 1 0 1 2 2 0 1 2 1 0 1 2 2 1 1 1 2 2 3 3 2 2 2 1 2 4 4 3 3 2 2 2 2 1 2 3 2 1 1 1 0 1 3 3 2 5 4 1 4 10 5 2 3 3 1 4 4 4 5 7 11 13 12 12 10 7 9 12 14 16 17 18 18 17 17 18 19 21 19 17 18 19 20
Wind_Direction
122 126 126 124 126 130 130 120 106 96 90 82 72 62 57 64 53 85 60 18 39 50 60 58 43 22 3 318 332 83 90 85 66 53 55 15 338 335 338 333 330 327 315 314 300 278 268 260 8 298 245 155 351 54 116 16 347 265 259 272 292 2 20 21 1 24 357 5 142 166 185 209 203 174 179 184 227 237 234 224 228 224 227 237 186 128 138 145
125 130 131 130 130 133 132 124 111 93 83 73 58 47 36 12 348 314 289 320 340 4 22 24 19 16 10 344 274 174 163 200 62 51 32 352 341 345 347 341 334 324 309 315 311 304 320 358 357 302 264 132 355 1 190 343 335 287 298 279 0 35 40 23 8 35 3 357 135 170 193 213 222 165 164 218 239 223 233 238 227 227 231 230 208 173 166 163
121 133 139 139 136 138 135 128 115 96 84 70 54 41 20 356 338 315 291 300 311 322 337 341 346 348 352 351 292 216 237 255 50 35 359 347 348 350 349 345 338 324 306 315 320 337 358 355 343 311 289 59 37 335 248 355 333 311 308 290 53 55 66 53 26 47 27 4 182 176 186 214 221 144 163 233 266 241 234 244 234 229 234 231 215 196 187 186
113 134 144 149 148 147 143 136 119 104 94 72 45 21 12 2 339 318 302 296 306 312 323 325 328 330 336 339 300 211 236 254 44 2 343 349 348 347 347 344 335 316 284 295 303 320 316 321 343 324 299 77 74 23 20 18 339 357 328 336 53 54 83 85 66 53 41 348 264 170 173 220 211 186 210 246 272 258 245 248 242 241 250 249 226 204 194 197
97 131 150 157 160 158 155 148 121 109 94 67 36 16 18 18 353 330 316 302 306 309 319 323 323 324 333 332 288 191 233 250 33 349 345 350 346 344 342 342 334 307 218 259 291 291 281 293 302 298 316 43 50 73 51 27 341 353 19 18 46 322 346 112 105 49 32 335 271 187 193 220 166 225 233 243 254 259 282 322 253 264 284 294 270 211 192 198
75 109 146 157 163 168 169 169 150 130 94 54 34 29 35 29 11 349 330 307 310 314 324 332 331 320 335 10 91 185 236 269 13 350 355 354 347 344 340 342 329 295 229 264 285 281 283 303 280 289 4 64 24 29 50 30 304 293 94 96 57 340 23 118 117 59 356 284 237 223 290 336 272 260 246 239 244 254 282 15 317 299 328 324 306 220 190 200
65 81 120 147 161 172 177 176 157 140 86 34 28 40 50 44 34 33 29 349 336 338 340 335 339 326 203 72 87 172 115 61 9 354 3 2 355 350 347 354 349 4 294 280 282 291 312 322 336 29 36 93 48 63 36 332 248 297 108 132 106 33 72 95 94 97 338 292 292 332 318 280 260 269 281 250 249 257 267 270 237 259 285 245 258 226 210 216
66 70 87 121 143 157 165 156 140 123 46 16 16 38 66 64 53 51 47 17 1 350 346 330 343 336 217 225 247 136 80 38 353 355 5 7 11 15 16 14 21 45 327 313 313 315 310 317 9 302 276 68 55 94 10 288 199 7 87 135 129 105 104 95 106 137 272 287 311 299 272 266 260 280 291 265 262 263 261 262 241 232 239 230 235 234 228 228
72 71 75 89 101 114 122 113 109 61 9 355 1 31 80 72 48 42 39 22 12 354 343 324 338 333 232 239 252 198 70 4 347 353 1 10 25 36 40 39 30 26 14 26 348 325 312 322 30 302 37 76 113 88 346 296 44 40 83 126 134 129 120 122 170 162 255 269 305 286 273 272 260 291 281 264 265 271 256 252 244 239 245 241 237 237 234 233
74 74 75 76 77 84 87 80 64 18 352 344 349 8 89 65 23 22 19 10 7 1 354 339 339 321 243 247 256 237 71 356 355 355 355 14 29 42 47 48 36 24 36 46 26 7 356 23 55 28 80 89 98 42 329 319 28 67 99 114 121 146 154 162 207 174 251 265 296 292 286 275 219 180 270 260 129 169 223 239 238 240 246 247 243 239 237 237
76 74 74 69 67 68 61 52 26 350 339 343 347 333 136 59 350 3 357 355 358 355 358 5 22 347 277 262 267 136 71 333 351 2 357 20 35 43 46 43 37 28 36 59 49 26 20 38 36 13 121 121 111 72 33 51 33 130 125 184 175 197 190 185 211 187 257 259 340 300 288 269 204 194 251 246 135 162 217 244 236 238 246 250 247 242 238 238
78 69 67 61 55 49 37 15 353 342 339 350 0 288 243 254 318 345 346 349 354 350 352 2 85 5 332 29 45 75 55 352 339 2 1 20 37 46 50 46 46 38 38 68 52 23 28 18 349 9 37 241 167 97 109 162 224 158 203 251 207 211 199 180 193 139 264 327 0 307 293 263 189 215 247 227 164 178 223 245 239 236 240 246 247 243 239 237
79 69 58 51 42 36 17 354 1 2 349 348 357 301 271 287 303 323 336 343 349 349 347 350 9 290 308 47 59 47 41 22 9 358 6 12 21 42 52 50 58 56 57 74 58 32 46 22 6 69 36 345 138 93 134 166 204 179 221 283 263 233 184 149 149 166 230 348 354 312 307 299 200 217 223 146 162 196 226 243 246 242 233 232 235 235 235 234
75 61 47 41 31 25 11 1 13 7 350 339 321 283 288 301 302 313 322 334 347 347 350 7 15 289 316 91 96 327 47 41 32 8 12 18 352 15 54 51 60 63 65 76 72 62 62 48 72 100 43 12 98 136 168 175 207 209 214 228 258 297 111 128 121 226 224 64 344 313 294 300 298 241 181 145 183 206 253 271 272 267 251 233 223 224 233 231
69 30 25 31 25 16 7 354 350 351 350 340 312 288 296 305 308 306 309 326 341 344 340 349 336 278 133 109 175 15 45 51 32 7 8 18 357 350 53 45 56 64 67 71 73 67 50 18 67 111 79 49 145 183 217 199 210 235 287 278 275 336 73 124 96 334 341 78 220 303 285 288 313 324 146 160 208 221 264 284 286 281 276 267 250 234 239 238
64 11 7 27 20 2 356 340 332 343 346 339 320 305 318 326 324 308 300 308 310 326 330 319 319 299 217 106 154 105 50 36 13 358 357 7 360 352 338 317 56 64 75 67 66 68 39 34 35 75 156 204 210 261 281 239 207 192 283 323 328 322 321 94 88 64 7 26 220 254 284 290 300 318 153 197 222 239 272 289 294 291 285 278 273 262 259 257
44 14 38 39 17 347 339 329 325 330 334 340 328 315 332 0 359 344 306 283 293 311 317 335 339 313 215 97 157 138 39 8 357 354 347 348 351 343 315 281 285 311 210 152 166 168 3 83 131 245 214 233 258 285 295 289 293 22 319 319 318 318 320 310 106 89 52 303 273 256 259 273 277 284 293 276 251 258 279 299 309 310 297 284 278 273 270 268
356 17 82 44 0 326 311 311 312 308 319 338 334 318 306 304 353 7 344 286 282 273 254 6 347 276 110 85 312 16 9 341 353 3 350 335 326 325 325 312 302 291 252 225 212 242 335 212 199 259 225 215 256 287 306 336 340 323 321 317 319 318 308 305 9 72 351 298 284 281 268 272 280 292 305 309 304 285 287 309 321 326 314 296 277 271 274 277
286 265 44 20 346 325 304 290 289 290 301 310 324 317 293 278 283 13 28 18 343 239 232 8 347 258 77 55 6 346 341 342 3 18 1 339 325 300 294 289 277 280 274 258 138 31 340 274 228 265 274 120 22 358 326 354 347 316 313 303 303 301 296 309 51 80 7 316 282 282 278 281 288 300 308 321 336 312 303 316 325 337 336 320 281 275 279 284
239 345 35 28 2 338 319 297 287 281 278 284 325 317 290 275 253 187 45 38 48 38 324 8 355 307 46 30 351 327 297 272 2 27 6 344 333 295 262 256 249 244 292 312 355 42 325 280 266 328 17 39 47 39 24 22 356 307 288 278 282 283 286 301 79 95 50 316 283 285 288 286 289 298 309 336 16 350 333 355 19 21 22 22 355 0 333 329
145 70 62 45 19 357 336 311 292 278 258 273 324 320 306 338 316 210 53 55 69 16 350 27 344 333 37 351 346 336 286 219 195 42 10 349 318 279 245 226 257 251 84 0 297 1 245 273 353 51 39 59 72 54 56 41 322 281 273 280 282 279 284 312 92 113 109 318 288 297 297 288 289 303 321 3 28 32 30 24 33 32 34 44 44 44 36 34
113 91 74 42 20 9 352 324 290 277 252 268 317 330 18 10 345 56 335 154 90 22 331 29 281 215 70 307 353 340 283 226 157 68 11 348 288 275 351 273 275 318 85 230 255 262 253 267 68 73 69 84 85 65 40 280 264 262 266 273 280 298 312 341 102 125 160 224 293 321 307 287 293 309 342 78 72 52 31 5 13 8 11 38 47 37 19 30
117 95 60 23 11 5 359 351 285 254 275 278 337 20 47 36 98 35 301 266 97 51 354 22 320 15 49 152 2 334 295 327 350 52 11 345 304 12 330 297 293 308 234 253 295 297 292 62 89 93 111 139 136 108 254 271 252 248 255 267 279 319 335 292 124 138 248 245 285 307 288 281 292 296 128 110 94 24 10 341 317 302 335 5 5 1 353 4
123 87 29 11 7 359 359 20 57 76 50 87 87 87 75 44 36 335 298 271 107 94 55 32 309 349 355 339 345 330 346 38 327 12 3 349 351 316 315 352 312 251 200 36 302 277 288 72 97 134 166 236 257 230 233 262 276 256 237 249 280 307 323 294 309 308 281 249 254 288 282 271 260 178 110 126 182 138 118 176 159 144 37 3 1 17 24 23
142 55 8 3 4 357 345 12 48 56 67 88 93 82 57 40 20 344 303 271 240 134 131 164 191 1 345 306 334 345 17 69 16 356 357 358 355 306 304 32 287 259 94 78 277 269 278 84 132 170 185 235 254 255 237 248 289 280 236 253 311 322 317 299 310 316 300 258 154 289 308 291 183 130 84 101 133 109 125 125 84 67 50 44 40 38 39 35
215 303 343 346 353 351 331 281 19 357 349 91 93 69 42 45 30 5 308 261 233 132 175 168 183 338 17 340 355 6 249 159 61 7 357 5 340 295 288 168 235 20 72 144 284 286 103 114 183 210 219 225 246 262 230 189 276 291 328 29 12 326 300 298 309 314 305 306 151 198 286 282 277 86 93 97 95 89 87 71 61 56 47 46 44 36 32 27
246 285 314 329 341 344 336 312 335 327 296 219 75 34 18 20 359 346 292 257 219 245 309 107 212 315 22 3 337 317 288 336 78 31 9 3 347 249 257 215 196 101 108 277 288 196 124 141 192 215 228 232 252 268 181 170 266 291 91 16 358 296 287 292 297 277 281 306 278 184 223 264 280 116 114 111 92 80 71 61 50 47 44 38 35 31 25 21
258 286 304 322 332 335 335 330 332 324 319 346 325 288 336 326 316 313 277 274 266 312 328 75 126 339 26 292 291 311 339 329 290 60 31 333 340 233 245 288 303 159 145 250 277 235 124 175 193 196 223 244 270 21 106 186 255 336 92 321 310 290 282 272 273 268 277 304 272 174 187 249 268 147 136 123 97 82 74 64 45 40 39 31 26 21 17 17
276 294 307 317 321 324 325 329 330 305 328 342 278 245 317 306 292 273 252 276 8 95 0 47 180 325 321 239 205 94 347 327 333 15 353 271 337 306 271 336 345 124 178 240 270 319 88 79 197 214 236 269 15 50 56 236 248 27 15 282 265 249 251 244 253 267 263 266 254 152 168 252 288 232 156 118 93 82 77 62 45 40 36 26 19 14 11 9
293 301 307 311 312 313 314 326 343 330 329 326 261 261 299 291 268 251 250 271 38 91 328 291 262 325 333 298 217 119 275 353 6 329 259 212 200 170 179 341 240 223 216 227 258 218 99 66 347 260 276 341 13 35 61 341 338 342 292 274 262 225 210 228 238 254 249 235 172 105 146 282 295 283 87 88 87 77 69 55 44 37 31 21 14 14 9 6
307 305 304 309 308 310 313 323 346 345 342 313 284 283 283 271 245 265 266 251 111 95 246 231 347 354 6 343 303 26 357 5 3 328 297 180 227 202 190 240 235 248 232 205 218 173 137 184 178 73 349 348 325 255 150 122 19 298 274 279 285 248 201 213 197 197 247 255 96 90 324 286 264 271 86 105 101 82 67 47 34 22 19 15 10 12 10 7
322 314 314 316 309 315 326 324 330 336 348 319 293 278 272 246 233 247 263 202 248 351 347 39 25 8 14 325 261 347 342 322 0 350 343 316 266 240 297 316 344 290 268 13 308 202 174 166 113 89 54 240 271 255 172 157 181 237 261 289 304 302 284 265 253 249 267 1 110 89 354 285 258 271 116 122 109 89 77 52 36 22 13 10 8 7 5 4
347 338 336 336 333 335 334 320 328 332 1 319 284 262 271 267 260 132 96 302 321 15 0 324 349 338 317 281 290 355 285 257 2 10 0 290 258 209 47 0 336 297 294 345 328 294 268 98 131 155 135 142 267 278 244 158 201 256 298 319 311 319 312 295 293 289 292 48 131 97 8 274 263 280 121 121 102 88 83 62 48 33 19 11 8 4 3 4
12 8 359 357 2 7 0 342 353 149 244 300 274 259 269 270 290 73 79 351 22 6 354 341 313 288 284 316 20 356 260 189 2 322 264 230 244 265 89 57 339 302 279 301 321 316 282 254 156 171 97 136 244 308 351 322 304 309 356 311 282 298 297 292 304 302 302 310 198 133 33 263 270 110 120 114 97 87 72 58 44 29 22 13 8 7 5 2
11 8 5 12 19 20 16 9 27 245 289 287 263 257 262 279 347 22 335 20 31 333 286 152 280 267 222 117 68 11 304 132 4 300 262 253 310 343 37 57 19 350 304 297 0 349 257 246 75 67 54 179 208 67 27 297 288 219 22 265 258 311 297 280 292 296 303 305 276 185 209 260 232 133 128 120 104 81 51 41 29 15 14 12 9 8 4 358
355 351 354 9 17 18 13 3 337 286 289 268 254 261 268 334 4 7 0 358 4 331 304 242 229 272 256 153 127 91 147 244 314 313 235 213 17 23 45 53 25 8 4 329 347 358 281 262 118 142 154 86 40 34 219 294 315 169 256 285 9 8 315 285 286 287 282 281 262 218 238 261 253 152 143 140 106 60 43 28 16 8 8 8 6 3 358 353
342 343 347 358 4 7 2 349 282 258 263 252 258 286 0 60 9 6 20 354 327 319 304 295 22 331 317 286 72 66 110 221 269 295 272 169 66 35 48 67 26 13 37 351 322 52 315 288 155 157 142 105 72 298 219 275 323 286 278 339 9 327 264 267 279 292 281 275 270 260 266 277 294 248 155 140 40 25 24 14 9 6 4 2 357 354 352 350
316 312 314 352 354 354 349 337 282 257 247 246 260 286 63 71 22 19 25 338 291 281 296 303 0 17 340 313 341 61 0 326 320 299 318 333 87 16 9 62 58 35 42 321 292 66 309 288 231 84 67 133 167 258 227 185 275 301 309 326 311 283 261 224 257 302 297 286 285 278 274 277 277 248 131 66 23 15 11 8 5 2 -0 355 350 349 349 347
292 271 231 358 348 346 354 334 292 263 246 253 272 319 49 42 67 62 8 307 280 297 300 322 3 351 327 317 329 36 352 326 335 322 324 343 20 34 15 14 80 84 38 313 311 346 289 274 302 60 126 141 183 222 236 163 153 233 268 243 197 288 286 273 288 309 293 287 291 287 279 285 301 63 57 39 26 14 6 4 1 358 356 350 348 348 345 344
304 269 196 8 346 352 5 329 284 257 256 286 316 15 25 35 95 101 26 333 320 317 331 352 333 288 304 319 322 341 251 276 309 307 322 0 0 52 60 12 23 86 31 301 296 302 254 241 277 236 150 226 222 206 334 22 118 223 233 219 207 218 250 288 273 252 265 278 291 293 286 305 54 65 60 44 29 19 10 3 358 354 351 348 348 345 341 339
284 251 30 2 345 349 345 330 18 352 284 294 43 54 43 5 63 102 87 13 345 42 354 328 307 295 317 316 297 339 292 267 282 291 298 15 356 35 56 20 7 26 330 257 247 295 288 257 277 281 263 272 354 66 33 25 8 305 279 275 293 273 275 289 270 203 235 272 291 299 288 300 42 88 71 37 21 25 15 3 356 350 347 345 343 340 339 335
260 256 15 0 351 347 301 301 78 341 292 327 16 34 26 325 320 51 95 122 299 219 189 277 291 294 307 315 326 330 294 283 289 305 288 314 11 24 48 16 351 334 297 288 105 39 337 281 275 275 272 283 78 80 59 35 358 311 283 288 323 298 271 277 284 330 345 267 296 289 274 288 67 122 63 16 18 29 15 2 355 346 342 340 337 337 335 331
281 303 34 12 7 350 294 281 136 228 49 55 337 72 23 317 310 43 138 183 214 275 228 236 281 299 305 325 306 293 304 292 280 309 295 288 34 47 51 6 338 303 278 282 96 81 309 257 261 274 272 143 105 104 87 58 299 242 227 222 277 310 315 295 296 331 314 274 271 270 267 276 126 149 357 0 17 21 5 359 352 342 338 336 334 334 332 333
334 308 38 9 10 358 283 324 0 322 88 113 219 127 98 310 344 343 282 180 163 281 267 260 277 286 298 308 290 293 342 309 277 15 332 310 42 70 54 14 346 337 7 358 6 25 277 253 281 298 294 279 133 138 116 136 259 265 199 122 95 64 61 345 283 290 273 260 255 262 271 276 160 267 333 347 2 3 355 354 347 339 336 333 331 332 333 333
288 251 173 14 26 48 352 349 340 325 68 118 273 255 185 180 50 2 351 18 336 305 300 292 255 281 274 269 274 268 266 270 281 50 13 328 84 112 79 25 338 346 36 10 326 316 281 282 294 292 298 305 307 319 349 321 313 310 297 118 118 150 160 246 279 262 253 271 268 255 267 284 297 320 330 338 351 353 348 344 340 336 333 329 329 331 331 330
279 327 202 20 43 57 75 60 327 309 215 232 263 219 283 227 118 79 301 263 157 265 279 254 238 262 239 244 272 257 221 225 255 325 324 306 63 101 91 27 347 13 27 337 297 283 281 280 265 264 273 285 300 314 329 328 307 297 295 268 142 148 170 256 266 265 294 313 284 258 279 299 308 318 326 340 351 345 338 336 335 333 329 328 331 331 329 329
276 327 5 339 43 56 88 98 350 331 28 312 288 112 330 252 145 146 231 251 116 244 259 230 227 250 237 288 293 280 210 210 226 280 306 292 348 100 137 146 125 81 358 300 261 256 271 270 272 275 270 275 291 298 302 302 289 289 303 312 183 143 149 207 234 272 318 316 280 285 312 309 308 317 330 348 348 336 333 333 331 329 328 330 332 330 329 329
349 31 39 340 290 30 39 34 7 3 47 324 295 133 274 264 173 171 208 168 189 227 242 215 212 242 261 309 315 310 303 258 223 193 0 314 327 139 168 159 134 150 256 218 161 346 277 270 27 16 277 279 282 282 287 289 280 283 297 298 276 159 166 205 238 277 302 289 281 300 310 302 302 319 341 350 341 332 331 329 328 329 329 331 331 329 328 330
31 91 93 300 327 47 23 321 333 314 292 308 231 180 286 298 0 27 94 194 199 184 228 269 195 218 258 290 294 300 322 317 288 312 51 28 316 293 273 237 144 169 244 215 141 28 278 271 77 70 284 284 275 276 286 266 269 281 268 269 279 204 206 224 249 285 295 283 285 298 301 296 306 344 354 343 334 330 328 327 329 330 330 331 330 326 327 331
312 68 105 195 109 76 25 297 293 274 211 222 224 158 272 293 0 40 180 246 263 154 185 283 19 64 8 272 257 277 351 359 321 316 0 329 278 274 284 324 69 147 224 228 124 159 265 321 84 154 287 291 256 168 197 225 275 280 230 202 292 262 244 251 271 303 306 294 295 300 296 294 324 1 347 334 333 332 330 330 330 330 332 330 324 323 330 334
321 41 131 242 169 116 328 251 256 274 231 188 353 55 248 307 16 340 197 149 338 16 126 321 354 40 204 231 251 286 21 19 333 338 349 305 306 325 339 350 354 263 200 177 187 220 239 274 156 255 295 307 125 158 252 270 288 262 215 197 327 291 287 300 304 318 315 306 304 301 296 306 339 347 334 328 335 336 332 332 330 330 328 323 323 333 339 336
167 114 143 283 275 151 235 259 241 275 329 65 24 26 294 27 42 315 293 111 61 22 12 338 331 294 257 229 254 354 25 19 0 11 355 304 305 335 353 15 3 333 295 166 214 266 317 290 302 322 304 307 88 309 305 301 265 233 188 93 352 322 310 315 321 321 313 306 306 304 310 330 337 336 331 331 336 337 335 333 328 322 321 323 335 343 337 333